KCIKMI Weather Reports


time (UTC)temp
C
wind
direction
speed
KPH
gust
KPH
rain 1hr
cm
rain 24hr
cm
rain mn
cm
humidity
%
barometer
mb
20260906061521 17 6 0.0 0.0 0.03 0.03 0.03 93 1010.6
20260906060020 17 6 0.0 0.0 0.03 0.03 0.03 92 1010.8
20260906054518 17 5 0.0 1.6 0.03 0.03 0.03 91 1010.7
20260906053017 17 12 0.0 1.6 0.03 0.03 0.03 91 1011.0
20260906051517 17 1 0.0 1.6 0.00 0.00 0.00 89 1011.1
20260906050016 17 5 0.0 3.2 0.00 0.00 0.00 89 1011.2
20260906044512 17 11 0.0 1.6 0.00 0.00 0.00 89 1011.1
20260906043012 17 8 0.0 1.6 0.00 0.00 0.00 88 1011.0
20260906041510 18 360 0.0 3.2 0.00 0.00 0.00 88 1011.0
20260906040014 18 356 0.0 1.6 0.00 0.00 0.00 88 1011.0
20260906034505 18 356 0.0 0.0 0.00 0.00 0.00 88 1010.8
20260906033003 18 356 0.0 1.6 0.00 0.00 0.00 87 1010.6
20260906031503 18 356 0.0 1.6 0.00 0.00 0.00 86 1010.6
20260906030004 18 356 0.0 0.0 0.00 0.00 0.00 86 1010.7
20260906024502 18 356 0.0 0.0 0.00 0.00 0.00 85 1010.6
20260906023002 18 356 0.0 0.0 0.00 0.00 0.00 85 1010.6
20260906021500 18 356 0.0 1.6 0.00 0.00 0.00 84 1010.7
20260906020000 18 356 0.0 4.8 0.00 0.00 0.00 82 1010.6
20260906014600 18 3 0.0 1.6 0.00 0.00 0.00 82 1010.7
20260906013100 18 3 0.0 3.2 0.00 0.00 0.00 82 1010.6
20260906011609 18 3 1.6 4.8 0.00 0.00 0.00 81 1010.8
20260906010057 18 346 0.0 1.6 0.00 0.00 0.00 81 1010.6
20260906004600 18 344 0.0 1.6 0.00 0.00 0.00 82 1010.4
20260906003056 18 176 0.0 0.0 0.00 0.00 0.00 81 1010.4
20260906001553 19 176 0.0 0.0 0.00 0.00 0.00 81 1010.1
20260906000059 19 261 0.0 0.0 0.00 0.00 0.00 81 1010.0
20260905234549 19 345 0.0 1.6 0.00 0.00 0.00 80 1009.8
20260905233053 19 284 0.0 0.0 0.00 0.00 0.00 80 1009.7
20260905231550 20 359 0.0 3.2 0.00 0.00 0.00 79 1009.7
20260905230047 20 338 0.0 1.6 0.00 0.00 0.00 78 1009.6
20260905224548 20 18 0.0 0.0 0.00 0.00 0.00 78 1009.6
20260905223046 20 350 0.0 4.8 0.00 0.00 0.00 77 1009.5
20260905221559 21 292 0.0 4.8 0.00 0.00 0.00 76 1009.4
20260905220043 21 360 0.0 4.8 0.00 0.00 0.00 77 1009.2
20260905214540 21 1 0.0 1.6 0.00 0.00 0.00 77 1008.9
20260905213038 21 354 0.0 4.8 0.00 0.00 0.00 75 1008.6
20260905211537 22 338 3.2 6.4 0.00 0.00 0.00 74 1008.5
20260905210036 22 355 3.2 6.4 0.00 0.00 0.00 73 1008.4
20260905204538 22 358 1.6 6.4 0.00 0.00 0.00 73 1008.2
20260905203035 22 321 0.0 8.0 0.00 0.00 0.00 73 1008.1
20260905201536 22 323 1.6 4.8 0.00 0.00 0.00 72 1007.9
20260905200038 22 332 0.0 6.4 0.00 0.00 0.00 74 1007.9
20260905194533 22 341 1.6 8.0 0.00 0.00 0.00 73 1007.9
20260905193040 23 336 0.0 11.3 0.00 0.00 0.00 71 1008.0
20260905191532 23 16 1.6 6.4 0.00 0.00 0.00 73 1007.9
20260905190041 22 21 0.0 8.0 0.00 0.00 0.00 73 1008.0
20260905184534 22 212 0.0 4.8 0.00 0.00 0.00 75 1008.0
20260905183031 22 348 0.0 6.4 0.00 0.00 0.00 75 1008.1
20260905181533 22 351 3.2 8.0 0.00 0.00 0.00 75 1008.3
20260905180039 22 338 3.2 8.0 0.00 0.00 0.00 74 1008.2
20260905174527 22 356 0.0 4.8 0.00 0.00 0.00 74 1008.1
20260905173026 22 328 0.0 8.0 0.00 0.00 0.00 74 1008.0
20260905171535 23 5 0.0 4.8 0.00 0.00 0.00 73 1007.8
20260905170024 23 342 4.8 11.3 0.00 0.00 0.00 72 1007.6
20260905164523 23 24 3.2 9.7 0.00 0.00 0.00 72 1007.5
20260905163022 23 350 1.6 8.0 0.00 0.00 0.00 70 1007.5
20260905161525 23 344 1.6 6.4 0.00 0.00 0.00 72 1007.5
20260905160034 24 346 4.8 11.3 0.00 0.00 0.00 69 1007.3
20260905154520 24 312 3.2 9.7 0.00 0.00 0.00 69 1007.3
20260905153019 23 11 3.2 14.5 0.00 0.00 0.00 69 1007.3
20260905151514 23 3 4.8 14.5 0.00 0.00 0.00 71 1007.2
20260905150011 23 353 0.0 9.7 0.00 0.00 0.00 71 1007.2
20260905144513 23 4 1.6 8.0 0.00 0.00 0.00 72 1007.2
20260905143006 22 57 3.2 8.0 0.00 0.00 0.00 72 1007.3
20260905141510 22 359 0.0 11.3 0.00 0.00 0.00 72 1007.4
20260905140002 22 3 4.8 9.7 0.00 0.00 0.00 73 1007.4
20260905134604 22 353 4.8 9.7 0.00 0.00 0.00 73 1007.4
20260905133059 21 356 4.8 12.9 0.00 0.00 0.00 74 1007.4
20260905131555 21 13 4.8 14.5 0.00 0.00 0.00 75 1007.6
20260905130055 21 16 6.4 14.5 0.00 0.00 0.00 76 1007.7
20260905124555 21 8 3.2 12.9 0.00 0.00 0.00 77 1007.5
20260905123049 20 351 0.0 6.4 0.00 0.00 0.00 78 1007.4
20260905121549 20 5 1.6 8.0 0.00 0.00 0.00 79 1007.2
20260905120058 20 8 1.6 9.7 0.00 0.00 0.00 80 1007.1
20260905114559 19 9 0.0 4.8 0.00 0.00 0.00 82 1007.3
20260905113055 18 5 1.6 6.4 0.00 0.00 0.00 83 1007.1
20260905111632 18 5 0.0 6.4 0.00 0.00 0.00 85 1007.1
20260905110043 17 358 0.0 1.6 0.00 0.00 0.00 87 1006.9
20260905104542 17 5 0.0 0.0 0.00 0.00 0.00 87 1006.8
20260905103040 17 5 0.0 0.0 0.00 0.00 0.00 86 1006.6
20260905101539 18 5 0.0 1.6 0.00 0.00 0.00 84 1006.5
20260905100035 18 12 0.0 3.2 0.00 0.00 0.00 85 1006.4
20260905094531 18 8 0.0 3.2 0.00 0.00 0.00 84 1006.4
20260905093029 17 5 0.0 1.6 0.00 0.00 0.00 85 1006.4
20260905091526 18 5 0.0 0.0 0.00 0.00 0.00 85 1006.3
20260905090025 18 5 0.0 0.0 0.00 0.00 0.00 84 1006.2
20260905084524 18 5 0.0 3.2 0.00 0.00 0.00 82 1006.3
20260905083024 18 8 0.0 3.2 0.00 0.00 0.00 83 1006.3
20260905081523 18 355 0.0 1.6 0.00 0.00 0.00 85 1006.3
20260905080030 18 8 0.0 0.0 0.00 0.00 0.00 85 1006.3
20260905074522 18 8 0.0 3.2 0.00 0.00 0.00 86 1006.3
20260905073028 18 169 0.0 0.0 0.00 0.00 0.00 86 1006.5
20260905071520 18 169 0.0 0.0 0.00 0.00 0.00 86 1006.5
20260905070026 18 169 0.0 0.0 0.00 0.00 0.00 86 1006.6
20260905064534 18 169 0.0 0.0 0.00 0.00 0.00 84 1006.7
20260905063014 18 169 0.0 0.0 0.00 0.00 0.00 85 1007.0